| time (UTC) | temp C | wind direction | speed KPH | gust KPH | rain 1hr cm | rain 24hr cm | rain mn cm | humidity % | barometer mb |
| 20260901031903 | 25 | 105 | 0.0 | 0.0 | 0.00 | 2.26 | 2.26 | 71 | 1015.3 |
| 20260901031403 | 25 | 105 | 0.0 | 0.0 | 0.00 | 2.26 | 2.26 | 70 | 1015.3 |
| 20260901030403 | 25 | 129 | 0.0 | 1.6 | 0.00 | 2.26 | 2.26 | 69 | 1015.2 |
| 20260901025903 | 25 | 135 | 0.0 | 1.6 | 0.00 | 2.26 | 2.26 | 69 | 1015.2 |
| 20260901024903 | 25 | 132 | 0.0 | 1.6 | 0.00 | 2.26 | 2.26 | 69 | 1015.0 |
| 20260901024403 | 25 | 104 | 0.0 | 1.6 | 0.00 | 2.26 | 2.26 | 69 | 1014.9 |
| 20260901023903 | 25 | 104 | 0.0 | 1.6 | 0.00 | 2.26 | 2.26 | 69 | 1014.8 |
| 20260901023403 | 25 | 104 | 0.0 | 1.6 | 0.00 | 2.26 | 2.26 | 69 | 1014.6 |
| 20260901022903 | 25 | 104 | 0.0 | 3.2 | 2.26 | 2.26 | 2.26 | 69 | 1014.4 |
| 20260901022403 | 25 | 104 | 0.0 | 3.2 | 2.26 | 2.26 | 2.26 | 68 | 1014.3 |
| 20260901021903 | 25 | 115 | 0.0 | 3.2 | 2.26 | 2.26 | 2.26 | 67 | 1014.3 |
| 20260901021403 | 25 | 106 | 0.0 | 1.6 | 2.26 | 2.26 | 2.26 | 68 | 1014.2 |
| 20260901020903 | 25 | 71 | 0.0 | 1.6 | 2.26 | 2.26 | 2.26 | 69 | 1014.1 |
| 20260901020403 | 26 | 71 | 0.0 | 1.6 | 2.26 | 2.26 | 2.26 | 68 | 1014.0 |
| 20260901015903 | 26 | 65 | 0.0 | 0.0 | 2.26 | 2.26 | 2.26 | 68 | 1014.0 |
| 20260901015403 | 26 | 65 | 0.0 | 0.0 | 2.26 | 2.26 | 2.26 | 67 | 1014.0 |
| 20260901014903 | 26 | 65 | 0.0 | 0.0 | 2.26 | 2.26 | 2.26 | 66 | 1014.1 |
| 20260901014404 | 26 | 65 | 0.0 | 0.0 | 2.26 | 2.26 | 2.26 | 66 | 1014.2 |
| 20260901013403 | 27 | 65 | 0.0 | 0.0 | 2.26 | 2.26 | 2.26 | 64 | 1013.8 |
| 20260901012403 | 27 | 53 | 0.0 | 4.8 | 0.00 | 0.00 | 0.00 | 64 | 1013.7 |
| 20260901011904 | 27 | 79 | 1.6 | 4.8 | 0.00 | 0.00 | 0.00 | 65 | 1013.7 |
| 20260901011404 | 27 | 57 | 0.0 | 3.2 | 0.00 | 0.00 | 0.00 | 64 | 1013.7 |
| 20260901010903 | 27 | 57 | 0.0 | 3.2 | 0.00 | 0.00 | 0.00 | 63 | 1013.5 |
| 20260901010404 | 27 | 88 | 0.0 | 3.2 | 0.00 | 0.00 | 0.00 | 61 | 1013.6 |
| 20260901005902 | 27 | 88 | 0.0 | 3.2 | 0.00 | 0.00 | 0.00 | 62 | 1013.7 |
| 20260901005404 | 27 | 74 | 0.0 | 3.2 | 0.00 | 0.00 | 0.00 | 61 | 1013.8 |
| 20260901004903 | 27 | 92 | 0.0 | 3.2 | 0.00 | 0.00 | 0.00 | 61 | 1013.8 |
| 20260901004404 | 27 | 106 | 0.0 | 3.2 | 0.00 | 0.00 | 0.00 | 60 | 1013.8 |
| 20260901003903 | 27 | 101 | 0.0 | 3.2 | 0.00 | 0.00 | 0.00 | 62 | 1013.8 |
| 20260901003403 | 27 | 110 | 0.0 | 3.2 | 0.00 | 0.00 | 0.00 | 60 | 1013.8 |
| 20260901002903 | 27 | 83 | 1.6 | 4.8 | 0.00 | 0.00 | 0.00 | 60 | 1013.8 |
| 20260901002403 | 27 | 138 | 0.0 | 4.8 | 0.00 | 0.00 | 0.00 | 60 | 1013.8 |
| 20260901001903 | 27 | 128 | 1.6 | 4.8 | 0.00 | 0.00 | 0.00 | 60 | 1013.9 |
| 20260901001403 | 27 | 121 | 1.6 | 4.8 | 0.00 | 0.00 | 0.00 | 59 | 1013.9 |
| 20260901000402 | 27 | 141 | 3.2 | 9.7 | 0.00 | 0.00 | 0.00 | 60 | 1013.9 |
| 20260831235903 | 27 | 121 | 4.8 | 9.7 | 0.00 | 0.00 | 0.00 | 59 | 1014.1 |
| 20260831235403 | 27 | 217 | 1.6 | 9.7 | 0.00 | 0.00 | 0.00 | 60 | 1013.9 |
| 20260831234903 | 27 | 111 | 1.6 | 12.9 | 0.00 | 0.00 | 0.00 | 60 | 1014.0 |
| 20260831234403 | 27 | 88 | 4.8 | 12.9 | 0.00 | 0.00 | 0.00 | 59 | 1014.1 |
| 20260831233903 | 27 | 138 | 4.8 | 11.3 | 0.00 | 0.00 | 0.00 | 60 | 1014.1 |
| 20260831232903 | 27 | 150 | 3.2 | 9.7 | 0.00 | 0.00 | 0.00 | 61 | 1014.0 |
| 20260831232403 | 27 | 119 | 3.2 | 12.9 | 0.00 | 0.00 | 0.00 | 62 | 1013.9 |
| 20260831231903 | 27 | 109 | 3.2 | 12.9 | 0.00 | 0.00 | 0.00 | 62 | 1014.0 |
| 20260831231403 | 27 | 185 | 3.2 | 11.3 | 0.00 | 0.00 | 0.00 | 62 | 1014.1 |
| 20260831230903 | 26 | 114 | 4.8 | 11.3 | 0.00 | 0.00 | 0.00 | 62 | 1014.1 |
| 20260831230403 | 26 | 116 | 1.6 | 12.9 | 0.00 | 0.00 | 0.00 | 64 | 1014.1 |
| 20260831225903 | 26 | 103 | 3.2 | 12.9 | 0.00 | 0.00 | 0.00 | 66 | 1014.2 |
| 20260831225402 | 26 | 161 | 1.6 | 9.7 | 0.00 | 0.00 | 0.00 | 67 | 1014.3 |
| 20260831224904 | 26 | 82 | 3.2 | 9.7 | 0.00 | 0.00 | 0.00 | 67 | 1014.4 |
| 20260831224404 | 26 | 118 | 3.2 | 4.8 | 0.00 | 0.00 | 0.00 | 68 | 1014.4 |
| 20260831223903 | 26 | 93 | 0.0 | 4.8 | 0.00 | 0.00 | 0.00 | 67 | 1014.5 |
| 20260831222903 | 26 | 131 | 3.2 | 4.8 | 0.00 | 0.00 | 0.00 | 67 | 1014.5 |
| 20260831222402 | 26 | 88 | 1.6 | 9.7 | 0.00 | 0.00 | 0.00 | 69 | 1014.6 |
| 20260831221903 | 26 | 144 | 1.6 | 11.3 | 0.00 | 0.00 | 0.00 | 67 | 1014.6 |
| 20260831221403 | 25 | 125 | 1.6 | 11.3 | 0.00 | 0.00 | 0.00 | 68 | 1014.7 |
| 20260831220903 | 25 | 150 | 1.6 | 4.8 | 0.00 | 0.00 | 0.00 | 72 | 1014.8 |
| 20260831220404 | 25 | 81 | 3.2 | 4.8 | 0.00 | 0.00 | 0.00 | 72 | 1015.1 |
| 20260831215903 | 25 | 127 | 1.6 | 12.9 | 0.00 | 0.00 | 0.00 | 72 | 1015.3 |
| 20260831215403 | 25 | 111 | 3.2 | 12.9 | 0.00 | 0.00 | 0.00 | 73 | 1015.3 |
| 20260831214903 | 25 | 305 | 3.2 | 12.9 | 0.00 | 0.00 | 0.00 | 74 | 1015.5 |
| 20260831213903 | 25 | 138 | 1.6 | 4.8 | 0.00 | 0.00 | 0.00 | 75 | 1015.8 |
| 20260831213403 | 25 | 79 | 0.0 | 8.0 | 0.00 | 0.00 | 0.00 | 75 | 1015.7 |
| 20260831212903 | 24 | 111 | 3.2 | 8.0 | 0.00 | 0.00 | 0.00 | 75 | 1015.8 |
| 20260831211403 | 24 | 136 | 1.6 | 8.0 | 0.00 | 0.00 | 0.00 | 76 | 1016.4 |
| 20260831210902 | 24 | 167 | 3.2 | 8.0 | 0.00 | 0.00 | 0.00 | 76 | 1016.6 |
| 20260831205903 | 24 | 93 | 1.6 | 4.8 | 0.00 | 0.00 | 0.00 | 76 | 1016.8 |
| 20260831205403 | 24 | 120 | 1.6 | 4.8 | 0.00 | 0.00 | 0.00 | 76 | 1016.9 |
| 20260831204903 | 24 | 116 | 1.6 | 4.8 | 0.00 | 0.00 | 0.00 | 76 | 1017.0 |
| 20260831204403 | 24 | 144 | 1.6 | 11.3 | 0.00 | 0.00 | 0.00 | 76 | 1017.3 |
| 20260831203903 | 24 | 112 | 3.2 | 11.3 | 0.00 | 0.00 | 0.00 | 76 | 1017.3 |
| 20260831203403 | 24 | 105 | 3.2 | 11.3 | 0.00 | 0.00 | 0.00 | 76 | 1017.5 |
| 20260831202903 | 24 | 140 | 3.2 | 11.3 | 0.00 | 0.00 | 0.00 | 76 | 1017.6 |
| 20260831202403 | 24 | 148 | 0.0 | 11.3 | 0.00 | 0.00 | 0.00 | 76 | 1018.0 |
| 20260831201404 | 24 | 103 | 3.2 | 12.9 | 0.00 | 0.00 | 0.00 | 75 | 1018.2 |
| 20260831200902 | 24 | 121 | 3.2 | 14.5 | 0.00 | 0.00 | 0.00 | 74 | 1018.3 |
| 20260831200403 | 24 | 91 | 3.2 | 14.5 | 0.00 | 0.00 | 0.00 | 74 | 1018.3 |
| 20260831195902 | 24 | 108 | 4.8 | 14.5 | 0.00 | 0.00 | 0.00 | 74 | 1018.5 |
| 20260831195403 | 24 | 143 | 6.4 | 14.5 | 0.00 | 0.00 | 0.00 | 73 | 1018.6 |
| 20260831194903 | 24 | 107 | 3.2 | 16.1 | 0.00 | 0.00 | 0.00 | 74 | 1018.6 |
| 20260831194403 | 25 | 110 | 6.4 | 16.1 | 0.00 | 0.00 | 0.00 | 73 | 1018.5 |
| 20260831193903 | 25 | 84 | 3.2 | 11.3 | 0.00 | 0.00 | 0.00 | 72 | 1018.8 |
| 20260831193403 | 25 | 58 | 4.8 | 16.1 | 0.00 | 0.00 | 0.00 | 72 | 1019.1 |
| 20260831192403 | 25 | 64 | 8.0 | 16.1 | 0.00 | 0.00 | 0.00 | 72 | 1018.6 |
| 20260831191904 | 25 | 58 | 4.8 | 16.1 | 0.00 | 0.00 | 0.00 | 71 | 1018.7 |
| 20260831191404 | 25 | 68 | 4.8 | 16.1 | 0.00 | 0.00 | 0.00 | 71 | 1018.8 |
| 20260831190904 | 25 | 56 | 8.0 | 16.1 | 0.00 | 0.00 | 0.00 | 72 | 1018.7 |
| 20260831190403 | 25 | 73 | 4.8 | 12.9 | 0.00 | 0.00 | 0.00 | 71 | 1019.0 |
| 20260831185903 | 25 | 54 | 4.8 | 11.3 | 0.00 | 0.00 | 0.00 | 71 | 1019.2 |
| 20260831185403 | 25 | 78 | 3.2 | 11.3 | 0.00 | 0.00 | 0.00 | 71 | 1019.4 |
| 20260831184904 | 25 | 99 | 1.6 | 11.3 | 0.00 | 0.00 | 0.00 | 71 | 1019.5 |
| 20260831184403 | 25 | 85 | 4.8 | 11.3 | 0.00 | 0.00 | 0.00 | 71 | 1019.5 |
| 20260831183903 | 25 | 43 | 1.6 | 4.8 | 0.00 | 0.00 | 0.00 | 71 | 1019.3 |
| 20260831183403 | 25 | 57 | 1.6 | 4.8 | 0.00 | 0.00 | 0.00 | 70 | 1019.4 |
| 20260831182903 | 25 | 63 | 0.0 | 4.8 | 0.00 | 0.00 | 0.00 | 70 | 1019.6 |
| 20260831182403 | 25 | 38 | 1.6 | 4.8 | 0.00 | 0.00 | 0.00 | 70 | 1019.7 |
| 20260831181903 | 25 | 348 | 0.0 | 1.6 | 0.00 | 0.00 | 0.00 | 71 | 1019.7 |
| 20260831180903 | 25 | 348 | 1.6 | 4.8 | 0.00 | 0.00 | 0.00 | 70 | 1019.7 |
| 20260831180403 | 25 | 253 | 1.6 | 4.8 | 0.00 | 0.00 | 0.00 | 71 | 1019.5 |
| 20260831175903 | 25 | 302 | 1.6 | 4.8 | 0.00 | 0.00 | 0.00 | 71 | 1019.6 |
| 20260831175403 | 25 | 38 | 3.2 | 4.8 | 0.00 | 0.00 | 0.00 | 70 | 1019.6 |
| 20260831174903 | 25 | 41 | 3.2 | 9.7 | 0.00 | 0.00 | 0.00 | 70 | 1019.7 |
| 20260831174403 | 25 | 18 | 1.6 | 9.7 | 0.00 | 0.00 | 0.00 | 70 | 1019.7 |
| 20260831173903 | 25 | 304 | 3.2 | 8.0 | 0.00 | 0.00 | 0.00 | 70 | 1019.6 |
| 20260831173403 | 25 | 300 | 1.6 | 4.8 | 0.00 | 0.00 | 0.00 | 70 | 1019.8 |
| 20260831172903 | 25 | 221 | 0.0 | 4.8 | 0.00 | 0.00 | 0.00 | 69 | 1019.9 |
| 20260831172403 | 25 | 230 | 1.6 | 4.8 | 0.00 | 0.00 | 0.00 | 68 | 1019.8 |
| 20260831171904 | 25 | 336 | 3.2 | 4.8 | 0.00 | 0.00 | 0.00 | 69 | 1019.4 |
| 20260831171403 | 26 | 5 | 3.2 | 4.8 | 0.00 | 0.00 | 0.00 | 69 | 1019.3 |
| 20260831170403 | 26 | 302 | 1.6 | 14.5 | 0.00 | 0.00 | 0.00 | 69 | 1019.2 |
| 20260831165903 | 26 | 230 | 3.2 | 14.5 | 0.00 | 0.00 | 0.00 | 69 | 1019.1 |
| 20260831165403 | 26 | 280 | 4.8 | 14.5 | 0.00 | 0.00 | 0.00 | 68 | 1019.0 |
| 20260831164903 | 26 | 198 | 1.6 | 9.7 | 0.00 | 0.00 | 0.00 | 67 | 1019.1 |
| 20260831164403 | 26 | 255 | 1.6 | 9.7 | 0.00 | 0.00 | 0.00 | 65 | 1019.0 |
| 20260831163903 | 26 | 215 | 3.2 | 12.9 | 0.00 | 0.00 | 0.00 | 64 | 1018.8 |
| 20260831163403 | 27 | 272 | 3.2 | 12.9 | 0.00 | 0.00 | 0.00 | 64 | 1018.5 |
| 20260831162403 | 27 | 289 | 3.2 | 12.9 | 0.00 | 0.00 | 0.00 | 63 | 1017.9 |
| 20260831161903 | 27 | 244 | 1.6 | 8.0 | 0.00 | 0.00 | 0.00 | 62 | 1017.8 |
| 20260831161403 | 27 | 318 | 4.8 | 8.0 | 0.00 | 0.00 | 0.00 | 60 | 1017.8 |
| 20260831160903 | 27 | 348 | 0.0 | 9.7 | 0.00 | 0.00 | 0.00 | 61 | 1017.8 |
| 20260831160403 | 27 | 30 | 0.0 | 9.7 | 0.00 | 0.00 | 0.00 | 60 | 1017.6 |
| 20260831155903 | 27 | 36 | 3.2 | 8.0 | 0.00 | 0.00 | 0.00 | 57 | 1017.5 |
| 20260831155403 | 27 | 82 | 1.6 | 14.5 | 0.00 | 0.00 | 0.00 | 57 | 1017.4 |
| 20260831154903 | 27 | 55 | 3.2 | 14.5 | 0.00 | 0.00 | 0.00 | 56 | 1017.1 |
| 20260831154403 | 27 | 94 | 4.8 | 9.7 | 0.00 | 0.00 | 0.00 | 57 | 1016.9 |
| 20260831153903 | 27 | 68 | 3.2 | 8.0 | 0.00 | 0.00 | 0.00 | 58 | 1016.8 |
| 20260831153403 | 26 | 82 | 3.2 | 9.7 | 0.00 | 0.00 | 0.00 | 60 | 1016.8 |
| 20260831152903 | 26 | 115 | 3.2 | 9.7 | 0.00 | 0.00 | 0.00 | 64 | 1016.9 |
| 20260831152403 | 26 | 66 | 3.2 | 9.7 | 0.00 | 0.00 | 0.00 | 66 | 1017.0 |
| 20260831151403 | 26 | 69 | 1.6 | 4.8 | 0.00 | 0.00 | 0.00 | 66 | 1016.9 |
| 20260831150903 | 26 | 61 | 1.6 | 4.8 | 0.00 | 0.00 | 0.00 | 67 | 1016.8 |
| 20260831150403 | 26 | 54 | 1.6 | 4.8 | 0.00 | 0.00 | 0.00 | 67 | 1016.7 |
| 20260831145903 | 26 | 119 | 0.0 | 3.2 | 0.00 | 0.00 | 0.00 | 65 | 1016.6 |
| 20260831145403 | 26 | 105 | 0.0 | 0.0 | 0.00 | 0.00 | 0.00 | 66 | 1016.5 |
| 20260831144902 | 26 | 105 | 0.0 | 4.8 | 0.00 | 0.00 | 0.00 | 64 | 1016.4 |
| 20260831144403 | 26 | 105 | 0.0 | 12.9 | 0.00 | 0.00 | 0.00 | 62 | 1016.4 |
| 20260831143904 | 26 | 122 | 1.6 | 12.9 | 0.00 | 0.00 | 0.00 | 62 | 1016.2 |
| 20260831143403 | 26 | 112 | 4.8 | 19.3 | 0.00 | 0.00 | 0.00 | 62 | 1015.9 |
| 20260831142903 | 26 | 91 | 4.8 | 19.3 | 0.00 | 0.00 | 0.00 | 62 | 1015.7 |
| 20260831142403 | 26 | 69 | 4.8 | 19.3 | 0.00 | 0.00 | 0.00 | 62 | 1015.3 |
| 20260831141903 | 26 | 66 | 6.4 | 22.5 | 0.00 | 0.00 | 0.00 | 62 | 1015.3 |
| 20260831141403 | 25 | 77 | 8.0 | 22.5 | 0.00 | 0.00 | 0.00 | 64 | 1015.2 |
| 20260831140904 | 25 | 52 | 6.4 | 19.3 | 0.00 | 0.00 | 0.00 | 65 | 1015.3 |
| 20260831135903 | 25 | 44 | 9.7 | 24.1 | 0.00 | 0.00 | 0.00 | 67 | 1015.4 |
| 20260831135403 | 25 | 59 | 9.7 | 24.1 | 0.00 | 0.00 | 0.00 | 68 | 1015.5 |
| 20260831134903 | 25 | 41 | 6.4 | 20.9 | 0.00 | 0.00 | 0.00 | 69 | 1015.5 |
| 20260831133903 | 25 | 37 | 8.0 | 25.7 | 0.00 | 0.00 | 0.00 | 69 | 1015.5 |
| 20260831132903 | 26 | 53 | 11.3 | 27.4 | 0.00 | 0.00 | 0.00 | 69 | 1015.7 |
| 20260831132403 | 26 | 50 | 8.0 | 22.5 | 0.00 | 0.00 | 0.00 | 68 | 1016.1 |
| 20260831131903 | 26 | 48 | 6.4 | 16.1 | 0.00 | 0.00 | 0.00 | 69 | 1016.5 |
| 20260831130403 | 26 | 54 | 8.0 | 19.3 | 0.00 | 0.00 | 0.00 | 68 | 1016.9 |
| 20260831125903 | 26 | 80 | 1.6 | 16.1 | 0.00 | 0.00 | 0.00 | 68 | 1017.1 |
| 20260831125403 | 26 | 54 | 8.0 | 16.1 | 0.00 | 0.00 | 0.00 | 67 | 1016.5 |
| 20260831124903 | 26 | 58 | 6.4 | 14.5 | 0.00 | 0.00 | 0.00 | 66 | 1016.6 |
| 20260831124403 | 26 | 48 | 3.2 | 19.3 | 0.00 | 0.00 | 0.00 | 67 | 1016.5 |
| 20260831123903 | 26 | 43 | 8.0 | 20.9 | 0.00 | 0.00 | 0.00 | 66 | 1016.4 |
| 20260831123403 | 26 | 38 | 6.4 | 20.9 | 0.00 | 0.00 | 0.00 | 68 | 1016.3 |
| 20260831122404 | 26 | 37 | 4.8 | 19.3 | 0.00 | 0.00 | 0.00 | 67 | 1016.3 |
| 20260831121904 | 26 | 37 | 8.0 | 19.3 | 0.00 | 0.00 | 0.00 | 67 | 1016.5 |
| 20260831121404 | 26 | 26 | 8.0 | 19.3 | 0.00 | 0.00 | 0.00 | 66 | 1016.7 |
| 20260831120904 | 26 | 33 | 4.8 | 19.3 | 0.00 | 0.00 | 0.00 | 66 | 1017.0 |
| 20260831120403 | 26 | 32 | 6.4 | 19.3 | 0.00 | 0.00 | 0.00 | 66 | 1017.0 |
| 20260831115903 | 27 | 247 | 4.8 | 14.5 | 0.00 | 0.00 | 0.00 | 64 | 1016.7 |
| 20260831115403 | 27 | 199 | 4.8 | 12.9 | 0.00 | 0.00 | 0.00 | 63 | 1016.6 |
| 20260831114903 | 27 | 214 | 3.2 | 11.3 | 0.00 | 0.00 | 0.00 | 61 | 1016.5 |
| 20260831114403 | 27 | 221 | 3.2 | 19.3 | 0.00 | 0.00 | 0.00 | 60 | 1016.5 |
| 20260831113903 | 28 | 230 | 6.4 | 20.9 | 0.00 | 0.00 | 0.00 | 58 | 1016.5 |
| 20260831113403 | 28 | 243 | 8.0 | 22.5 | 0.00 | 0.00 | 0.00 | 57 | 1016.1 |
| 20260831112903 | 28 | 249 | 8.0 | 27.4 | 0.00 | 0.00 | 0.00 | 54 | 1015.9 |
| 20260831112403 | 28 | 258 | 14.5 | 29.0 | 0.00 | 0.00 | 0.00 | 53 | 1015.5 |
| 20260831111903 | 28 | 230 | 11.3 | 33.8 | 0.00 | 0.00 | 0.00 | 53 | 1015.1 |
| 20260831110903 | 29 | 224 | 12.9 | 33.8 | 0.00 | 0.00 | 0.00 | 51 | 1015.1 |
| 20260831110403 | 30 | 232 | 16.1 | 32.2 | 0.00 | 0.00 | 0.00 | 50 | 1015.1 |
| 20260831105903 | 30 | 233 | 4.8 | 14.5 | 0.00 | 0.00 | 0.00 | 46 | 1014.2 |
| 20260831105404 | 30 | 220 | 1.6 | 3.2 | 0.00 | 0.00 | 0.00 | 46 | 1013.8 |
| 20260831104903 | 30 | 247 | 0.0 | 1.6 | 0.00 | 0.00 | 0.00 | 46 | 1013.5 |
| 20260831104403 | 30 | 301 | 0.0 | 0.0 | 0.00 | 0.00 | 0.00 | 47 | 1013.2 |
| 20260831103903 | 30 | 301 | 0.0 | 0.0 | 0.00 | 0.00 | 0.00 | 47 | 1013.2 |
| 20260831102904 | 30 | 301 | 0.0 | 0.0 | 0.00 | 0.00 | 0.00 | 47 | 1013.4 |
| 20260831101903 | 30 | 301 | 0.0 | 0.0 | 0.00 | 0.00 | 0.00 | 48 | 1013.4 |
| 20260831100403 | 30 | 299 | 0.0 | 0.0 | 0.00 | 0.00 | 0.00 | 46 | 1013.2 |
| 20260831095903 | 30 | 299 | 0.0 | 0.0 | 0.00 | 0.00 | 0.00 | 46 | 1012.9 |
| 20260831095403 | 30 | 299 | 0.0 | 0.0 | 0.00 | 0.00 | 0.00 | 46 | 1012.9 |
| 20260831094903 | 30 | 299 | 0.0 | 1.6 | 0.00 | 0.00 | 0.00 | 46 | 1012.9 |
| 20260831094403 | 30 | 315 | 0.0 | 3.2 | 0.00 | 0.00 | 0.00 | 46 | 1013.0 |
| 20260831093903 | 30 | 323 | 0.0 | 3.2 | 0.00 | 0.00 | 0.00 | 46 | 1013.0 |
| 20260831093403 | 30 | 314 | 1.6 | 3.2 | 0.00 | 0.00 | 0.00 | 46 | 1013.0 |
| 20260831092903 | 30 | 41 | 0.0 | 3.2 | 0.00 | 0.00 | 0.00 | 46 | 1013.0 |
| 20260831091904 | 30 | 16 | 0.0 | 1.6 | 0.00 | 0.00 | 0.00 | 46 | 1013.1 |
| 20260831091403 | 30 | 16 | 0.0 | 1.6 | 0.00 | 0.00 | 0.00 | 46 | 1013.2 |
| 20260831090903 | 30 | 16 | 0.0 | 0.0 | 0.00 | 0.00 | 0.00 | 47 | 1013.2 |
| 20260831090403 | 30 | 16 | 0.0 | 4.8 | 0.00 | 0.00 | 0.00 | 46 | 1013.1 |
| 20260831085904 | 30 | 16 | 0.0 | 4.8 | 0.00 | 0.00 | 0.00 | 47 | 1013.2 |
| 20260831085403 | 30 | 55 | 1.6 | 4.8 | 0.00 | 0.00 | 0.00 | 47 | 1013.2 |
| 20260831084903 | 30 | 65 | 0.0 | 0.0 | 0.00 | 0.00 | 0.00 | 46 | 1013.2 |
| 20260831084403 | 30 | 65 | 0.0 | 0.0 | 0.00 | 0.00 | 0.00 | 46 | 1013.2 |
| 20260831083903 | 30 | 65 | 0.0 | 0.0 | 0.00 | 0.00 | 0.00 | 46 | 1013.2 |
| 20260831083403 | 30 | 65 | 0.0 | 1.6 | 0.00 | 0.00 | 0.00 | 46 | 1013.3 |
| 20260831081903 | 30 | 65 | 0.0 | 0.0 | 0.00 | 0.00 | 0.00 | 48 | 1013.3 |
| 20260831081403 | 30 | 65 | 0.0 | 0.0 | 0.00 | 0.00 | 0.00 | 48 | 1013.3 |
| 20260831080903 | 30 | 65 | 0.0 | 3.2 | 0.00 | 0.00 | 0.00 | 49 | 1013.3 |
| 20260831080403 | 30 | 65 | 0.0 | 3.2 | 0.00 | 0.00 | 0.00 | 48 | 1013.4 |
| 20260831075903 | 31 | 336 | 0.0 | 0.0 | 0.00 | 0.00 | 0.00 | 46 | 1013.2 |
| 20260831074903 | 31 | 336 | 0.0 | 1.6 | 0.00 | 0.00 | 0.00 | 46 | 1013.4 |
| 20260831074403 | 31 | 336 | 0.0 | 1.6 | 0.00 | 0.00 | 0.00 | 45 | 1013.3 |
| 20260831073903 | 31 | 286 | 0.0 | 0.0 | 0.00 | 0.00 | 0.00 | 42 | 1013.3 |
| 20260831073403 | 31 | 286 | 0.0 | 1.6 | 0.00 | 0.00 | 0.00 | 42 | 1013.4 |
| 20260831072903 | 31 | 286 | 0.0 | 1.6 | 0.00 | 0.00 | 0.00 | 42 | 1013.4 |
| 20260831071904 | 31 | 292 | 0.0 | 1.6 | 0.00 | 0.00 | 0.00 | 42 | 1013.3 |
| 20260831070903 | 31 | 292 | 0.0 | 1.6 | 0.00 | 0.00 | 0.00 | 42 | 1013.4 |
| 20260831070403 | 31 | 292 | 0.0 | 3.2 | 0.00 | 0.00 | 0.00 | 42 | 1013.5 |
| 20260831065904 | 31 | 292 | 0.0 | 3.2 | 0.00 | 0.00 | 0.00 | 42 | 1013.5 |
| 20260831065403 | 31 | 331 | 0.0 | 1.6 | 0.00 | 0.00 | 0.00 | 42 | 1013.6 |
| 20260831064903 | 31 | 334 | 0.0 | 1.6 | 0.00 | 0.00 | 0.00 | 42 | 1013.6 |
| 20260831064403 | 31 | 333 | 0.0 | 1.6 | 0.00 | 0.00 | 0.00 | 42 | 1013.6 |
| 20260831063903 | 31 | 333 | 0.0 | 1.6 | 0.00 | 0.00 | 0.00 | 42 | 1013.7 |
| 20260831063403 | 31 | 333 | 0.0 | 1.6 | 0.00 | 0.00 | 0.00 | 42 | 1013.7 |
| 20260831062903 | 31 | 333 | 0.0 | 1.6 | 0.00 | 0.00 | 0.00 | 42 | 1013.6 |
| 20260831062403 | 31 | 333 | 0.0 | 1.6 | 0.00 | 0.00 | 0.00 | 41 | 1013.7 |
| 20260831061903 | 31 | 355 | 0.0 | 1.6 | 0.00 | 0.00 | 0.00 | 41 | 1013.7 |
| 20260831061403 | 31 | 18 | 0.0 | 0.0 | 0.00 | 0.00 | 0.00 | 41 | 1013.7 |
| 20260831060904 | 31 | 18 | 0.0 | 0.0 | 0.00 | 0.00 | 0.00 | 41 | 1013.6 |
| 20260831060404 | 31 | 18 | 0.0 | 0.0 | 0.00 | 0.00 | 0.00 | 41 | 1013.6 |
| 20260831055903 | 31 | 18 | 0.0 | 1.6 | 0.00 | 0.00 | 0.00 | 40 | 1013.6 |
| 20260831055403 | 32 | 18 | 0.0 | 1.6 | 0.00 | 0.00 | 0.00 | 40 | 1013.5 |
| 20260831054404 | 32 | 298 | 0.0 | 1.6 | 0.00 | 0.00 | 0.00 | 39 | 1013.4 |
| 20260831053903 | 32 | 298 | 0.0 | 1.6 | 0.00 | 0.00 | 0.00 | 39 | 1013.3 |
| 20260831053403 | 32 | 298 | 0.0 | 3.2 | 0.00 | 0.00 | 0.00 | 39 | 1013.4 |
| 20260831052903 | 32 | 242 | 1.6 | 4.8 | 0.00 | 0.00 | 0.00 | 39 | 1013.4 |
| 20260831052403 | 32 | 227 | 0.0 | 4.8 | 0.00 | 0.00 | 0.00 | 39 | 1013.3 |
| 20260831051903 | 32 | 338 | 1.6 | 4.8 | 0.00 | 0.00 | 0.00 | 38 | 1013.4 |
| 20260831051403 | 32 | 326 | 1.6 | 4.8 | 0.00 | 0.00 | 0.00 | 38 | 1013.3 |
| 20260831050903 | 32 | 11 | 0.0 | 4.8 | 0.00 | 0.00 | 0.00 | 38 | 1013.2 |
| 20260831050403 | 32 | 323 | 0.0 | 4.8 | 0.00 | 0.00 | 0.00 | 38 | 1013.1 |
| 20260831045904 | 32 | 291 | 0.0 | 4.8 | 0.00 | 0.00 | 0.00 | 37 | 1013.2 |
| 20260831045404 | 32 | 351 | 1.6 | 4.8 | 0.00 | 0.00 | 0.00 | 37 | 1013.1 |
| 20260831044903 | 32 | 350 | 1.6 | 4.8 | 0.00 | 0.00 | 0.00 | 37 | 1013.2 |
| 20260831044403 | 32 | 341 | 1.6 | 4.8 | 0.00 | 0.00 | 0.00 | 37 | 1013.2 |
| 20260831043903 | 32 | 336 | 1.6 | 4.8 | 0.00 | 0.00 | 0.00 | 37 | 1013.3 |
| 20260831043403 | 32 | 305 | 1.6 | 4.8 | 0.00 | 0.00 | 0.00 | 37 | 1013.4 |
| 20260831042904 | 32 | 12 | 0.0 | 4.8 | 0.00 | 0.00 | 0.00 | 37 | 1013.3 |
| 20260831041904 | 32 | 295 | 3.2 | 4.8 | 0.00 | 0.00 | 0.00 | 36 | 1013.3 |
| 20260831041403 | 33 | 301 | 1.6 | 4.8 | 0.00 | 0.00 | 0.00 | 36 | 1013.1 |
| 20260831040903 | 33 | 259 | 1.6 | 4.8 | 0.00 | 0.00 | 0.00 | 36 | 1013.0 |
| 20260831035903 | 33 | 244 | 3.2 | 12.9 | 0.00 | 0.00 | 0.00 | 36 | 1013.0 |
| 20260831035404 | 33 | 216 | 3.2 | 12.9 | 0.00 | 0.00 | 0.00 | 36 | 1013.0 |
| 20260831034904 | 33 | 227 | 3.2 | 9.7 | 0.00 | 0.00 | 0.00 | 36 | 1012.9 |
| 20260831034403 | 33 | 224 | 4.8 | 9.7 | 0.00 | 0.00 | 0.00 | 36 | 1012.9 |
| 20260831033403 | 33 | 230 | 1.6 | 9.7 | 0.00 | 0.00 | 0.00 | 35 | 1012.7 |
| 20260831032903 | 33 | 223 | 3.2 | 9.7 | 0.00 | 0.00 | 0.00 | 34 | 1012.6 |
| 20260831032404 | 33 | 271 | 0.0 | 4.8 | 0.00 | 0.00 | 0.00 | 34 | 1012.6 |